Regional Weather Roundup
Issued by NWS Wakefield, VA

Home | Current Version | Previous Version | Graphics & Text | Print | Product List | Glossary On
Versions: 1 2 3 4 5 6 7 8 9 10 11 12 13 14 15 16 17 18 19 20 21 22 23 24 25 26 27 28 29 30 31 32 33 34 35 36 37 38 39 40 41 42 43 44 45 46 47 48 49 50
000
ASUS41 KAKQ 220010
RWRAKQ

REGIONAL WEATHER ROUNDUP
NATIONAL WEATHER SERVICE WAKEFIELD VA
700 PM EST SUN DEC 21 2014

Note: "fair" indicates few or no clouds below 12,000 feet with no
significant weather and/or obstructions to visibility. * = Denotes
station may not report precipitation (e.g., rain,snow,etc.),
thunder or fog.

VAZ042-051-052>054-056-220100-
NORTHERN VIRGINIA

CITY           SKY/WX    TMP DP  RH WIND       PRES   REMARKS
WASH NATIONAL  FAIR      40  27  59 NE6       30.32S
DULLES         PTCLDY    33  24  69 NE5       30.31S
FORT BELVOIR   CLEAR     30  24  78 CALM      30.32F
QUANTICO       CLEAR     34  27  75 CALM      30.32F
FREDERICKSBRG* CLEAR     32  27  80 CALM      30.30S
STAFFORD*      CLEAR     29  24  79 CALM      30.35S
WARRENTON      CLEAR     29  28  94 CALM      30.29S
CULPEPER*      CLEAR     28  27  93 CALM      30.31R
MANASSAS*      CLEAR     30  27  86 CALM      30.31S
LEESBURG*      PTCLDY    34  28  80 NE3       30.31F
WINCHESTER     PTCLDY    34  21  60 CALM      30.28S
FRONT ROYAL*   CLEAR     32  27  80 N3        30.26S
LURAY*         CLEAR     34  28  80 N6        30.25R
$$

VAZ048-049-060>072-079>083-220100-
CENTRAL AND SOUTH CENTRAL VIRGINIA

CITY           SKY/WX    TMP DP  RH WIND       PRES   REMARKS
RICHMOND       PTCLDY    39  26  59 E5        30.30S
CHESTERFIELD*  CLEAR     34  18  51 CALM      30.31R
PETERSBURG*    CLEAR     31  29  92 CALM      30.31R
HANOVER        CLEAR     30  26  85 CALM      30.32R
TAPPAHANNOCK*  CLEAR     32  25  73 CALM      30.31F
QUINTON*       CLEAR     32  28  85 E3        30.30S
CHARLOTTSVILLE CLEAR     37  26  64 E3        30.28R
GORDONSVILLE*  CLEAR     29  25  85 CALM      30.29R
ORANGE*        CLEAR     30  28  93 CALM      30.31R
LOUISA*        CLEAR     28  27  93 CALM      30.28R
BUMPASS*       CLEAR     31  26  81 NW3       30.30R
FARMVILLE*     CLEAR     38  28  67 CALM      30.26S
CREWE*         CLEAR     32  28  85 CALM      30.27R
FORT PICKETT*  CLEAR     35  28  75 E5        30.28R
CHASE CITY*    CLEAR     36  33  90 E3        30.27R
CLARKSVILLE*   CLEAR     37  32  81 CALM      30.26R
SOUTH HILL*    CLEAR     34  30  86 CALM      30.34R
LAWRENCEVILLE* CLEAR     37  30  76 CALM      30.28R
EMPORIA*       CLEAR     34  30  86 CALM      30.31R
$$

VAZ088>098-220100-
SOUTHEAST VIRGINIA

CITY           SKY/WX    TMP DP  RH WIND       PRES   REMARKS
NORFOLK        CLEAR     38  31  76 CALM      30.32R
VIRGINIA BEACH MOCLDY    35  27  72 CALM      30.31S
NORFOLK NAVAL  PTCLDY    40  30  67 E3        30.33R
WEST POINT*    CLEAR     36  29  75 E6        30.33F
SALUDA*        FAIR      31  28  88 CALM      30.32S
NEWPORT NEWS   CLEAR     36  30  79 E5        30.31S
LANGLEY AFB    CLEAR     35  29  80 NE8       30.32
FORT EUSTIS    CLEAR     37  30  74 VRB5      30.29F
WILLIAMSBURG*  CLEAR     37  34  87 E3        30.32S
HR EXEC AP*    CLEAR     30  27  86 CALM      30.34R
FRANKLIN*      CLEAR     36  30  80 E7        30.30S
WAKEFIELD      PTCLDY    35  28  75 CALM      30.31R
$$

VAZ020-022-025-037-045-220100-
WEST CENTRAL AND SOUTHWEST VIRGINIA

CITY           SKY/WX    TMP DP  RH WIND       PRES   REMARKS
STAUNTON*      CLEAR     32  25  75 CALM      30.25R
WAYNESBORO*    CLEAR     34  26  72 SE6       30.23R
HOT SPRINGS VA CLEAR     32  27  83 S6        30.11S
LYNCHBURG      CLOUDY    34  29  82 CALM      30.26R
DANVILLE       MOCLDY    40  32  73 E3        30.25S
SOUTH BOSTON*  CLEAR     36  30  80 CALM      30.26S
MARTINSVILLE   CLOUDY    40  34  79 CALM      30.25S
ROANOKE        PTCLDY    37  30  75 SE6       30.25R
BLACKSBURG     CLOUDY    37  30  75 E10       30.21S
DUBLIN*        CLOUDY    41  35  79 SE6       30.18S
MARION*        FAIR      38  33  82 E5        30.16S
HILLSVILLE*    CLOUDY    37  32  84 SE7       30.15S
RICHLANDS*     PTCLDY    40  32  72 SE8G16    30.10S
WISE*          PTCLDY    37  30  75 CALM      30.10F
ABINGDON*      PTCLDY    41  35  78 E7        30.11R
$$

MDZ021>025-VAZ099-100-220100-
SOUTHERN MARYLAND AND THE DELMARVA PENINSULA

CITY           SKY/WX    TMP DP  RH WIND       PRES   REMARKS
PATUXENT RIVER CLEAR     28  23  81 CALM      30.33R
BAY BRIDGE APT   N/A     34  25  69 NE3       30.35R
LEONARDTOWN    CLEAR     30  27  86 CALM      30.34S
DOVER          CLEAR     29  23  78 N8        30.31S
GEORGETOWN     CLEAR     29  24  82 CALM      30.34R
EASTON         NOT AVBL
CAMBRIDGE      CLEAR     32  27  80 CALM      30.33R
SALISBURY      CLEAR     31  24  75 CALM      30.33R
OCEAN CITY     CLEAR     26  25  96 CALM      30.33S FOG
WALLOPS ISLAND CLEAR     31  27  85 CALM      30.34R
ACCOMACK*      CLEAR     30  27  86 NE3       30.33R
$$

NCZ012>017-030>032-220100-
NORTH CENTRAL AND EASTERN NORTH CAROLINA

CITY           SKY/WX    TMP DP  RH WIND       PRES   REMARKS
ROANOKE RAPIDS CLEAR     36  32  87 CALM      30.29R
RALEIGH        CLOUDY    45  34  65 E6        30.25F
ELIZABETH CITY CLEAR     42  33  70 N7        30.31R
AHOSKIE*       CLEAR     39  32  76 CALM      30.30R
EDENTON*         N/A     39  33  80 E5        30.29F
CURRITUCK*     CLEAR     39  32  75 CALM      30.32R
KILL DEVIL HLS CLEAR     44  38  79 NE5       30.28R
MANTEO         CLEAR     43  37  79 NE9       30.29R
CAPE HATTERAS  CLOUDY    47  43  86 N8        30.26R
TARBORO*       CLOUDY    43  34  70 CALM      30.29R
GOLDSBORO      CLOUDY    46  42  86 NE6       30.23F
WASHINGTON     CLOUDY    43  34  72 NE6       30.27S
GREENVILLE     CLOUDY    45  34  65 E8        30.27F
NEW BERN       MOCLDY    46  37  71 NE9       30.26R
WILMINGTON     CLOUDY    47  38  71 NE8       30.22R
$$

VAZ048-220100-
ELSEWHERE

CITY           SKY/WX    TMP DP  RH WIND       PRES   REMARKS
HARRISBURG PA  MOCLDY    29  21  72 CALM      30.35R
BALTIMORE      PTCLDY    35  24  64 E5        30.34R
ANNAPOLIS      CLEAR     34  27  75 CALM      30.34R
ANDREWS AFB    PTCLDY    32  24  72 CALM      30.31R
PHILADELPHIA   PTCLDY    34  22  61 NE3       30.35R
HENDERSON NC   PTCLDY    37  32  81 NE3       30.26S
GREENSBORO     CLOUDY    42  35  76 E7        30.21S
ROCKY MOUNT    CLOUDY    45  33  63 NE6       30.27S
$$

VAZ100-220100-
MARINE

STATION/POSITION TIME  TEMP    WIND        PRES    WAVE   SWELL
                       AIR SEA DIR/SP/G            HT/PER HT/PER
                 (UTC) (F)     (DEG/KT/KT) (MB)    (FT/S) (FT/S)
CAPE MAY NJ      0000   38 44  350/  6/  7 1026.6F
LEWES DE         0000   40 42  360/  7/  9 1026.9R
15NM E FENWICK I 0000   40 45              1026.6R   2/ 3
OCEAN-CITY-INLET 0000   38 44   30/  4/  7 1026.6R
WACHAPREAGUE VA  0000   35 42  320/  3/  4 1026.8F
THOMAS POINT MD  0000   39 41   50/  7/  8 1028.3R
GOOSES REEF MD   0000   38     VRB  4/  4  1026.2S
COVE POINT MD    0000   37      80/  7/  7 1026.8F
SOLOMONS ISLAND  0000      43                N/A
BISHOPS HEAD MD  0000   36 38  360/  3/  4 1026.5R
POTOMAC MD       0000   40      50/  6/  8 1026.1S
CAMBRIDGE MD     0000   35 40   CALM  /  1 1026.9S
LEWISETTA VA     0000   39 41   60/  7/  8 1026.5S
RAPPAHANNOCK LGT 0000           20/  7/  7 1027.3R
STINGRAY PT      0000   40      50/  8/  8 1027.1S
YORK RVR RNG VA  0000   40      70/  9/ 11 1026.1R
YORKTOWN VA      0000   40 45   70/  5/  7 1026.4R
JAMESTOWN VA     0000   38     120/  6/  8   N/A
DOMINION TERM VA 0000   39      40/  3/  4 1026.5R
KIPTOPEKE VA     0000      49   30/  3/  4   N/A
CHES BAY BRIDGE  0000   41 46   40/  7/  9 1026.1R
CAPE HENRY VA    0000   41      60/  9/ 11 1025.3R
CHESAPEAKE LGHT  2300   41      40/ 11/ 13 1026.5F
WILLOUBY STN VA  0000   40      50/  7/  9 1026.9R
S CRANEY ISL VA  0000           50/  5/  7 1026.5R
CAPE HENRY BUOY  0000      49                N/A     2/10
1ST LANDING BUOY 0000   41      40/  8/ 10 1026.0S
CAPE CHARLES BUO 0000      47                N/A     2/10   2/10
64NM E OF VA BCH 0000   47 54   40/ 14/ 17 1025.2R   2/ 4   2/11
DUCK PIER NC     0000   45 46   40/ 13/ 15 1025.2R
44100 DUCK FRF   0000      51                N/A     3/ 4
44056 DUCK FRF   0000      46                N/A     3/ 4
OREGON INLET NC  0000   46 48   20/ 10/ 15 1025.1R
HATTERAS NC      0000   47 49   20/ 14/ 16 1024.7R
DIAMOND SHLS NC  0000   55                 1023.4R   4/ 5
CAPE LOOKOUT NC  2300   47      20/ 16/ 20 1023.7R
$$


USA.gov is the U.S. government's official web portal to all federal, state and local government web resources and services.